Flag for Vietnam Weather past 2 weeks in Ho Chi Minh, Vietnam

Now
84 °F

Scattered clouds.


Feels Like: 92 °F
Forecast: 80 / 91 °F
Wind: 9 mph from Southeast

Location: Ho Chi Minh

Current Time: Apr 28, 2015 at 7:34:00 AM

Latest Report: Apr 28, 2015 at 6:30 AM


Visibility: N/A

Pressure: 29.86 "Hg

Humidity: 74%

Dew point: 75 °F

Location of Ho Chi MinhLocation

Historic Weather in Ho Chi Minh — Graph

°F

Ho Chi Minh temperature yesterday

Maximum temperature yesterday: 97 °F (at 2:00 PM)
Minimum temperature yesterday: 81 °F (at 5:00 AM)
Average temperature yesterday: 87 °F

Past Weeks' High & Low Weather Summary

 TemperatureHumidityPressure
High100 °F (Apr 26, 2:00 PM)94% (Apr 14, 2:00 AM)29.98 "Hg (Apr 14, 2:00 AM)
Low75 °F (Apr 13, 6:00 AM)27% (Apr 26, 2:00 PM)29.68 "Hg (Apr 21, 2:30 PM)
Average86 °F64%29.83 "Hg
* Reported Apr 13 6:00 AM — Apr 28 6:30 AM, Ho Chi Minh, Weather by CustomWeather, © 2015

Note: Actual official high and low records may vary slightly from our data, if they occured in-between our weather recording intervals... More about our weather records

Advertising

Ho Chi Minh weather history for previous 24 hours

 ConditionsComfort  
Time TempWeatherWind HumidityBarometerVisibility
6:30 AM
Tue, Apr 28
84 °FScattered clouds.9 mph74%29.86 "HgN/A
6:00 AM82 °FScattered clouds.6 mph79%29.86 "HgN/A
5:30 AM82 °FPassing clouds.7 mph79%29.83 "HgN/A
5:00 AM82 °FPassing clouds.8 mph74%29.83 "HgN/A
4:30 AM82 °FPassing clouds.8 mph74%29.83 "HgN/A
4:00 AM82 °FPassing clouds.8 mph74%29.83 "HgN/A
3:30 AM82 °FPassing clouds.7 mph74%29.80 "HgN/A
3:00 AM82 °FPassing clouds.8 mph74%29.80 "HgN/A
2:30 AM82 °FPassing clouds.9 mph74%29.80 "HgN/A
2:00 AM84 °FPassing clouds.10 mph70%29.83 "HgN/A
1:30 AM84 °FPassing clouds.9 mph70%29.83 "HgN/A
1:00 AM84 °FPassing clouds.8 mph70%29.83 "HgN/A
12:30 AM84 °FPassing clouds.9 mph70%29.86 "HgN/A
12:00 AM84 °FPassing clouds.9 mph70%29.86 "HgN/A
11:30 PM
Mon, Apr 27
84 °FPassing clouds.12 mph70%29.86 "HgN/A
11:00 PM84 °FPassing clouds.8 mph70%29.89 "HgN/A
10:30 PM84 °FPassing clouds.10 mph70%29.89 "HgN/A
10:00 PM84 °FPassing clouds.10 mph70%29.89 "HgN/A
9:30 PM84 °FPassing clouds.9 mph70%29.86 "HgN/A
9:00 PM86 °FPassing clouds.10 mph62%29.86 "HgN/A
8:30 PM86 °FPassing clouds.6 mph66%29.86 "HgN/A
8:00 PM86 °FPassing clouds.10 mph66%29.83 "HgN/A
7:30 PM86 °FPassing clouds.10 mph66%29.83 "HgN/A
7:00 PM86 °FPassing clouds.12 mph66%29.83 "HgN/A
6:30 PM86 °FPassing clouds.12 mph66%29.80 "HgN/A
6:00 PM88 °FScattered clouds.12 mph62%29.77 "HgN/A
5:30 PM88 °FScattered clouds.13 mph62%29.77 "HgN/A
5:00 PM90 °FScattered clouds.12 mph59%29.77 "HgN/A
4:30 PM90 °FThunderstorms. Scattered clouds.5 mph55%29.74 "HgN/A
4:00 PM88 °FThunderstorms. Scattered clouds.14 mph55%29.74 "HgN/A
3:30 PM93 °FScattered clouds.7 mph49%29.71 "HgN/A
3:00 PM93 °FScattered clouds.7 mph47%29.74 "HgN/A
2:30 PM97 °FScattered clouds.5 mph39%29.74 "HgN/A
2:00 PM97 °FScattered clouds.2 mph42%29.77 "HgN/A
1:30 PM95 °FScattered clouds.5 mph44%29.77 "HgN/A
1:00 PM95 °FScattered clouds.2 mph41%29.80 "HgN/A
12:30 PM93 °FScattered clouds.1 mph49%29.80 "HgN/A
12:00 PM93 °FScattered clouds.5 mph47%29.83 "HgN/A
11:30 AM91 °FScattered clouds.3 mph52%29.86 "HgN/A
11:00 AM91 °FScattered clouds.3 mph52%29.86 "HgN/A
10:30 AM90 °FScattered clouds.5 mph55%29.86 "HgN/A
10:00 AM90 °FScattered clouds.5 mph59%29.89 "HgN/A
9:30 AM88 °FScattered clouds.6 mph62%29.89 "Hg5 mi
9:00 AM88 °FScattered clouds.5 mph62%29.89 "Hg5 mi
8:30 AM86 °FScattered clouds.2 mph66%29.89 "Hg5 mi
8:00 AM84 °FScattered clouds.6 mph70%29.89 "Hg5 mi
7:30 AM82 °FScattered clouds.7 mph74%29.89 "Hg5 mi
7:00 AM82 °FScattered clouds.6 mph74%29.86 "Hg5 mi
Weather by CustomWeather, © 2015

See weather overviewHow to use our weather pages